Desroches Airport

Jump to: basic info | weather | runways | comments

Related pages: nearby airports | nearby navaids | notams | map

Basic information (top)

Codes: DES FSDR
Location: lon -5.696700, lat 53.655800, elev 10 ft / 3 m msl
Status: small_airport
Scheduled airline service: no
Links: Wikipedia Mobile

Weather (top)

Current conditions for Seychelles International Airport 127nm (236km) ENE (rec'd 2014/10/31 22:00Z):

FSIA 312200Z 00000KT 9999 BKN017 25/23 Q1010 NOSIG

Airport forecast for Seychelles International Airport 127nm (236km) ENE (rec'd 2014/10/31 18:00Z):

TAF FSIA 311621Z 3118/0118 VRB05KT 9999 FEW015CB SCT019 BKN080 
      TEMPO 3118/0103 -SHRA FEW014CB BKN016 PROB30 
      TEMPO 0108/0112 -SHRA

Runways (top)

12/30: 4,531 x 33 ft (1,381 x 10 m) — paved — not lighted

Latest comments (top)

No comments yet for Desroches Airport

More... (top)

See also NOTAMs and nearby airports and navaids, or visit the Desroches Airport page at the main OurAirports website..